Air Force Academy, CO

2:17 AM MDT on October 22, 2019 (GMT -0600)
Usaf Academy

Weather History for KAFF - May, 2019

Change the Weather History Date:

Saturday, May 25, 2019

  Actual Average Record
Temperature  
Mean Temperature 52 °F -  
Max Temperature 70 °F 69 °F 84 °F (2018)
Min Temperature 35 °F 42 °F 32 °F (2001)
Degree Days  
Heating Degree Days 13    
Growing Degree Days 2 (Base 50)    
Moisture  
Dew Point 33 °F    
Average Humidity 44    
Maximum Humidity 75    
Minimum Humidity 21    
Precipitation  
Precipitation 0.00 in - - ()
Sea Level Pressure  
Sea Level Pressure 29.89 in    
Wind  
Wind Speed 10 mph (SE)    
Max Wind Speed 21 mph    
Max Gust Speed 28 mph    
Visibility 10 miles    
Events      
Averages and records for this station are not official NWS values.
T = Trace of Precipitation, MM = Missing Value Source: NWS Daily Summary

Daily Weather History Graph

Daily Weather History Graph

Search for Another Location

Airport or City:

Astronomy

May. 25, 2019 Rise Set
Actual Time 5:39 AM MDT 8:13 PM MDT
Civil Twilight 5:08 AM MDT 8:44 PM MDT
Nautical Twilight 4:29 AM MDT 9:23 PM MDT
Astronomical Twilight 3:46 AM MDT 10:06 PM MDT
Moon 1:16 AM MDT (5/25) 11:40 AM MDT (5/25)
Length of Visible Light 15h 36m
Length of Day
14h 34m
Waning Gibbous, 59% of the Moon is Illuminated
May 25
Waning Gibbous
May 26
Last Quarter
Jun 3
New
Jun 10
First Quarter
Jun 17
Full

Hourly Weather History & Observations

Time (MDT) Temp. Windchill Dew Point Humidity Pressure Visibility Wind Dir Wind Speed Gust Speed Precip Events Conditions
12:58 AM 42.4 °F 38.8 °F 27.9 °F 56% 29.88 in 10.0 mi North 5.8 mph - N/A   Clear
1:58 AM 38.8 °F 34.6 °F 28.8 °F 67% 29.89 in 10.0 mi North 5.8 mph - N/A   Clear
2:58 AM 36.9 °F 30.1 °F 28.8 °F 72% 29.91 in 10.0 mi North 9.2 mph - N/A   Clear
3:58 AM 36.1 °F 29.3 °F 27.7 °F 71% 29.92 in 10.0 mi NNW 9.2 mph - N/A   Clear
4:58 AM 35.4 °F 29.0 °F 27.0 °F 71% 29.93 in 10.0 mi North 8.1 mph - N/A   Clear
5:58 AM 35.1 °F 27.9 °F 26.6 °F 71% 29.94 in 10.0 mi North 9.2 mph - N/A   Clear
6:58 AM 41.9 °F 36.9 °F 28.6 °F 59% 29.92 in 10.0 mi North 8.1 mph - N/A   Clear
7:58 AM 52.9 °F - 28.6 °F 39% 29.92 in 10.0 mi Calm Calm - N/A   Clear
8:58 AM 56.5 °F - 33.6 °F 42% 29.93 in 10.0 mi South 10.4 mph - N/A   Clear
9:58 AM 58.8 °F - 35.2 °F 41% 29.92 in 10.0 mi SSE 6.9 mph - N/A   Clear
10:58 AM 61.3 °F - 32.7 °F 34% 29.94 in 10.0 mi South 10.4 mph - N/A   Clear
11:58 AM 63.0 °F - 34.2 °F 34% 29.94 in 10.0 mi South 15.0 mph 24.2 mph N/A   Partly Cloudy
12:58 PM 64.8 °F - 31.8 °F 29% 29.93 in 10.0 mi South 16.1 mph 23.0 mph N/A   Partly Cloudy
1:07 PM 64.4 °F - 32.0 °F 30% 29.92 in 10.0 mi SE 17.3 mph 24.2 mph N/A   Partly Cloudy
1:10 PM 64.4 °F - 32.0 °F 30% 29.94 in 10.0 mi South 17.3 mph 25.3 mph N/A   Partly Cloudy
1:58 PM 66.2 °F - 32.2 °F 28% 29.90 in 10.0 mi SSE 17.3 mph 24.2 mph N/A   Clear
2:30 PM 66.2 °F - 32.0 °F 28% 29.91 in 10.0 mi SE 15.0 mph - N/A   Clear
2:45 PM 68.0 °F - 30.2 °F 24% 29.91 in 10.0 mi SSE 15.0 mph 27.6 mph N/A   Clear
2:57 PM 68.0 °F - 28.4 °F 23% 29.89 in 10.0 mi ESE 15.0 mph 26.5 mph N/A   Partly Cloudy
2:58 PM 67.1 °F - 29.1 °F 24% 29.89 in 10.0 mi ESE 13.8 mph 26.5 mph N/A   Partly Cloudy
3:07 PM 68.0 °F - 30.2 °F 24% 29.88 in 10.0 mi South 20.7 mph 27.6 mph N/A   Clear
3:58 PM 69.4 °F - 30.0 °F 23% 29.86 in 10.0 mi SSE 15.0 mph 27.6 mph N/A   Clear
4:41 PM 69.8 °F - 28.4 °F 21% 29.85 in 10.0 mi South 20.7 mph 26.5 mph N/A   Clear
4:58 PM 69.6 °F - 31.3 °F 24% 29.84 in 10.0 mi SE 15.0 mph 24.2 mph N/A   Clear
5:58 PM 68.5 °F - 31.3 °F 25% 29.84 in 10.0 mi SE 16.1 mph 24.2 mph N/A   Clear
6:58 PM 67.1 °F - 32.9 °F 28% 29.81 in 10.0 mi South 12.7 mph - N/A   Clear
7:58 PM 61.7 °F - 31.5 °F 32% 29.82 in 10.0 mi South 9.2 mph - N/A   Clear
8:58 PM 60.6 °F - 31.3 °F 33% 29.81 in 10.0 mi ESE 6.9 mph - N/A   Clear
9:58 PM 57.4 °F - 39.4 °F 51% 29.84 in 10.0 mi SSE 10.4 mph - N/A   Scattered Clouds
10:58 PM 57.4 °F - 46.9 °F 68% 29.86 in 10.0 mi SSE 11.5 mph - N/A   Mostly Cloudy
11:13 PM 57.2 °F - 46.4 °F 67% 29.86 in 10.0 mi SSE 11.5 mph - N/A   Mostly Cloudy
11:28 PM 57.2 °F - 48.2 °F 72% 29.84 in 10.0 mi SSE 12.7 mph - N/A   Mostly Cloudy
11:43 PM 57.2 °F - 48.2 °F 72% 29.86 in 10.0 mi SE 11.5 mph - N/A   Mostly Cloudy
11:58 PM 56.7 °F - 48.7 °F 75% 29.83 in 10.0 mi SE 11.5 mph - N/A   Overcast